AI4Y Weather Reports


time (UTC)temp
F
wind
direction
speed
knots
gust
knots
rain 1hr
in
rain 24hr
in
rain mn
in
humidity
%
barometer
mb
20260508053018 44 98 0.9 2.6 0.00 0.09 0.00 97 1014.6
20260508052018 44 189 0.9 1.7 0.00 0.09 0.00 97 1014.5
20260508051015 45 119 1.7 3.5 0.00 0.09 0.00 96 1014.3
20260508050016 46 145 1.7 2.6 0.00 0.09 0.00 93 1014.2
20260508045015 46 58 0.0 1.7 0.00 0.09 0.00 92 1014.1
20260508044016 46 152 0.0 3.5 0.00 0.09 0.00 91 1014.1
20260508043016 46 158 0.9 3.5 0.00 0.09 0.00 92 1014.1
20260508042016 47 155 0.9 3.5 0.00 0.09 0.00 89 1014.0
20260508041016 47 1 0.0 1.7 0.00 0.09 0.00 91 1014.0
20260508040036 46 105 0.0 4.3 0.00 0.09 0.00 93 1013.9
20260508035016 47 70 0.9 3.5 0.00 0.09 0.09 93 1013.8
20260508034017 47 185 0.9 2.6 0.00 0.09 0.09 95 1013.8
20260508033016 47 145 0.9 4.3 0.00 0.10 0.09 96 1013.7
20260508032037 47 66 1.7 4.3 0.00 0.10 0.09 96 1013.7
20260508031017 48 315 0.9 3.5 0.00 0.11 0.09 96 1013.6
20260508030017 48 105 1.7 3.5 0.00 0.20 0.09 97 1013.4
20260508025017 49 157 1.7 4.3 0.00 0.23 0.09 98 1013.4
20260508024017 49 141 1.7 2.6 0.00 0.25 0.09 99 1013.3
20260508023018 49 293 0.9 2.6 0.00 0.27 0.09 100 1013.4
20260508022017 49 187 1.7 3.5 0.00 0.27 0.09 99 1013.1
20260508021038 50 215 0.0 0.9 0.00 0.27 0.09 99 1013.0
20260508020038 50 141 1.7 3.5 0.00 0.27 0.09 99 1012.7
20260508015018 50 126 0.9 3.5 0.00 0.27 0.09 99 1012.6
20260508014036 51 146 1.7 2.6 0.00 0.27 0.09 99 1012.4
20260508013016 52 160 1.7 2.6 0.00 0.27 0.09 99 1012.1
20260508012016 52 151 0.9 1.7 0.00 0.27 0.09 100 1012.0
20260508011016 52 10 0.0 1.7 0.00 0.27 0.09 99 1011.8
20260508010016 53 293 0.9 3.5 0.00 0.27 0.09 99 1011.7
20260508005016 54 297 0.9 1.7 0.00 0.27 0.09 98 1011.8
20260508004016 54 302 0.9 1.7 0.00 0.27 0.09 97 1011.8
20260508003016 55 303 0.9 1.7 0.00 0.27 0.09 96 1011.8
20260508002016 55 295 0.0 1.7 0.00 0.27 0.09 94 1011.9
20260508001016 57 133 0.0 1.7 0.00 0.27 0.09 92 1011.9
20260508000017 58 202 0.9 1.7 0.00 0.27 0.09 90 1011.8
20260507235016 59 235 0.9 1.7 0.00 0.27 0.09 88 1011.6
20260507234017 60 147 0.9 1.7 0.00 0.27 0.09 86 1011.4
20260507233016 60 154 0.9 2.6 0.00 0.27 0.09 87 1011.3
20260507232017 60 120 1.7 3.5 0.00 0.27 0.09 87 1011.0
20260507231017 60 131 0.9 2.6 0.00 0.27 0.09 88 1010.9
20260507230017 60 59 1.7 4.3 0.00 0.27 0.09 88 1010.7
20260507225017 60 95 1.7 3.5 0.00 0.27 0.09 86 1010.7
20260507224018 60 179 0.9 2.6 0.00 0.27 0.09 88 1010.5
20260507223018 61 114 2.6 6.1 0.00 0.27 0.09 86 1010.5
20260507222038 63 107 1.7 5.2 0.00 0.27 0.09 84 1010.2
20260507221018 63 191 1.7 3.5 0.00 0.27 0.09 84 1010.3
20260507220016 61 193 1.7 4.3 0.00 0.27 0.09 87 1010.2
20260507215016 59 139 1.7 4.3 0.00 0.27 0.09 91 1010.2
20260507214036 59 120 1.7 4.3 0.00 0.27 0.09 91 1010.5
20260507213016 60 123 1.7 4.3 0.00 0.27 0.09 89 1010.6
20260507212016 61 143 1.7 3.5 0.00 0.27 0.09 87 1010.6
20260507211016 62 173 0.9 3.5 0.00 0.27 0.09 88 1010.4
20260507210016 60 156 1.7 3.5 0.00 0.27 0.09 91 1010.0
20260507205017 60 140 1.7 3.5 0.00 0.27 0.09 90 1010.3
20260507204017 60 121 1.7 3.5 0.00 0.27 0.09 90 1010.2
20260507203017 60 194 1.7 4.3 0.00 0.27 0.09 94 1010.2
20260507202017 59 105 1.7 5.2 0.00 0.27 0.09 94 1010.2
20260507201017 57 114 2.6 6.1 0.00 0.27 0.09 97 1010.2
20260507200017 57 77 3.5 7.0 0.00 0.27 0.09 97 1010.6
20260507195017 56 98 3.5 6.1 0.02 0.27 0.09 98 1010.8
20260507194020 55 111 2.6 4.3 0.03 0.27 0.09 99 1011.0
20260507193023 55 111 2.6 3.5 0.03 0.27 0.09 99 1011.4
20260507192024 55 118 2.6 4.3 0.03 0.27 0.09 99 1011.5
20260507191021 55 107 2.6 4.3 0.03 0.27 0.09 99 1011.5
20260507190024 56 123 2.6 4.3 0.03 0.27 0.09 98 1011.4
20260507185024 56 63 1.7 3.5 0.02 0.25 0.07 98 1011.5
20260507184024 57 95 1.7 3.5 0.02 0.25 0.06 98 1011.5
20260507183024 57 83 1.7 2.6 0.01 0.25 0.06 98 1011.5
20260507182024 57 119 0.9 1.7 0.01 0.25 0.06 98 1011.5
20260507181025 57 80 1.7 2.6 0.02 0.25 0.06 98 1011.5
20260507180025 57 328 0.9 1.7 0.04 0.25 0.05 98 1011.4
20260507175025 57 89 1.7 3.5 0.04 0.24 0.05 98 1011.6
20260507174017 57 55 1.7 2.6 0.03 0.24 0.05 97 1011.4
20260507173037 58 75 1.7 2.6 0.03 0.24 0.04 97 1011.4
20260507172017 58 51 0.9 2.6 0.03 0.24 0.04 96 1011.4
20260507171020 58 301 0.9 2.6 0.03 0.23 0.04 95 1011.6
20260507170037 59 333 1.7 3.5 0.00 0.21 0.02 93 1011.4
20260507165017 59 46 1.7 4.3 0.00 0.21 0.01 92 1011.2
20260507164022 60 57 1.7 3.5 0.00 0.22 0.01 90 1011.3
20260507163017 60 291 0.9 2.6 0.00 0.22 0.01 90 1011.3
20260507162017 60 62 1.7 3.5 0.00 0.22 0.01 90 1011.3
20260507161018 60 307 1.7 4.3 0.00 0.22 0.01 90 1011.3
20260507160018 60 46 1.7 5.2 0.00 0.22 0.01 88 1011.5
20260507155018 60 303 1.7 3.5 0.00 0.22 0.01 87 1011.6
20260507154018 60 306 2.6 5.2 0.00 0.22 0.01 88 1011.7
20260507153018 60 310 1.7 3.5 0.00 0.22 0.01 89 1011.7
20260507152039 60 312 1.7 4.3 0.00 0.22 0.01 87 1011.7
20260507151019 60 309 1.7 5.2 0.00 0.22 0.01 86 1011.5
20260507150016 60 302 1.7 3.5 0.00 0.22 0.01 87 1011.6
20260507145016 60 307 2.6 4.3 0.00 0.22 0.01 86 1011.5
20260507144016 60 307 2.6 5.2 0.00 0.22 0.01 86 1011.4
20260507143016 60 307 1.7 5.2 0.00 0.22 0.01 88 1011.2
20260507142036 60 303 1.7 2.6 0.00 0.22 0.01 89 1011.3
20260507141017 60 310 1.7 5.2 0.00 0.23 0.01 89 1011.4
20260507140020 60 310 1.7 3.5 0.00 0.24 0.01 88 1011.1
20260507135017 61 304 2.6 5.2 0.00 0.25 0.01 85 1011.6
20260507134017 61 305 3.5 7.0 0.00 0.26 0.01 85 1011.6
20260507133017 62 304 3.5 5.2 0.00 0.26 0.01 86 1011.3
20260507132017 61 302 1.7 3.5 0.00 0.26 0.01 86 1011.5
20260507131017 60 294 1.7 4.3 0.00 0.27 0.01 87 1011.7
20260507130037 60 304 0.9 1.7 0.00 0.28 0.01 88 1011.7
20260507125018 60 309 1.7 3.5 0.00 0.28 0.01 87 1011.7
20260507124038 59 311 2.6 5.2 0.00 0.28 0.01 88 1011.7
20260507123018 59 310 2.6 6.1 0.00 0.28 0.01 89 1011.9
20260507122058 60 305 3.5 7.0 0.00 0.28 0.01 90 1011.4
20260507121016 59 310 1.7 3.5 0.00 0.28 0.01 91 1011.2
20260507120015 59 312 2.6 4.3 0.00 0.28 0.01 92 1011.5
20260507115016 59 302 1.7 2.6 0.00 0.28 0.01 91 1011.3
20260507114016 59 302 0.9 2.6 0.00 0.28 0.01 92 1011.2
20260507113016 59 302 1.7 2.6 0.00 0.28 0.01 93 1011.2
20260507112016 59 308 2.6 5.2 0.00 0.28 0.01 94 1011.1
20260507111016 59 302 1.7 5.2 0.00 0.29 0.01 95 1010.8
20260507110036 59 301 1.7 3.5 0.00 0.29 0.01 95 1011.1
20260507105016 59 305 1.7 3.5 0.00 0.29 0.01 95 1010.7
20260507104037 59 313 0.9 2.6 0.00 0.29 0.01 96 1010.9
20260507103017 59 303 1.7 2.6 0.00 0.29 0.01 97 1010.9
20260507102017 59 307 1.7 4.3 0.00 0.29 0.01 97 1011.0
20260507101017 60 305 1.7 4.3 0.00 0.29 0.01 97 1010.5
20260507100017 60 306 1.7 4.3 0.00 0.29 0.01 97 1010.3
20260507095017 60 303 3.5 7.8 0.00 0.29 0.01 99 1010.5
20260507094058 61 307 3.5 8.7 0.00 0.29 0.01 99 1010.2
20260507093018 61 300 1.7 3.5 0.00 0.29 0.01 99 1010.6
20260507092018 61 304 1.7 3.5 0.00 0.29 0.00 99 1010.4
20260507091018 61 192 0.9 1.7 0.00 0.29 0.00 99 1009.9
20260507090016 61 183 0.9 1.7 0.00 0.29 0.00 99 1010.2
20260507085016 61 295 1.7 3.5 0.00 0.29 0.00 99 1010.4
20260507084016 61 299 0.9 1.7 0.00 0.29 0.00 99 1010.6
20260507083017 62 300 0.9 1.7 0.00 0.29 0.00 99 1010.4
20260507082017 62 299 0.0 1.7 0.00 0.29 0.00 99 1010.6
20260507081037 62 45 0.0 0.9 0.00 0.29 0.00 99 1010.7
20260507080017 62 129 0.0 0.9 0.00 0.29 0.00 99 1010.7
20260507075017 62 138 0.0 0.9 0.00 0.29 0.00 99 1010.7
20260507074036 62 296 1.7 3.5 0.00 0.29 0.00 99 1010.7
20260507073016 62 308 1.7 4.3 0.00 0.29 0.00 99 1010.9
20260507072056 62 300 0.0 1.7 0.00 0.29 0.00 99 1010.8
20260507071016 62 148 0.9 1.7 0.00 0.29 0.00 99 1010.5
20260507070016 62 293 0.9 2.6 0.00 0.29 0.00 99 1010.4
20260507065017 62 307 0.9 3.5 0.00 0.29 0.00 99 1010.5
20260507064017 62 282 0.0 1.7 0.00 0.29 0.00 99 1010.4
20260507063017 62 226 0.0 0.9 0.00 0.29 0.00 99 1010.2
20260507062017 62 223 0.0 0.9 0.00 0.29 0.00 99 1010.4
20260507061017 62 185 0.0 1.7 0.00 0.29 0.00 99 1010.5
20260507060038 63 315 0.0 1.7 0.00 0.29 0.00 99 1010.8
20260507055017 62 313 0.0 1.7 0.00 0.29 0.00 99 1010.8
20260507054017 62 78 1.7 2.6 0.00 0.29 0.00 99 1011.0